Regional Weather Roundup
Issued by NWS New Orleans/Baton Rouge, LA

Home | Current Version | Previous Version | Graphics & Text | Print | Product List | Glossary On
Versions: 1 2 3 4 5 6 7 8 9 10 11 12 13 14 15 16 17 18 19 20 21 22 23 24 25 26 27 28 29 30 31 32 33 34 35 36 37 38 39 40 41 42 43 44 45 46 47 48 49 50
983
ASUS44 KLIX 261610
RWRLIX
NEW ORLEANS REGIONAL WEATHER ROUNDUP
NATIONAL WEATHER SERVICE NEW ORLEANS LA
1000 AM CST THU FEB 26 2015

NOTE: "FAIR" INDICATES FEW OR NO CLOUDS BELOW 12,000 FEET WITH NO
      SIGNIFICANT WEATHER AND/OR OBSTRUCTIONS TO VISIBILITY.
      SKY/WX - SKY CONDITION AND SIGNIFICANT WEATHER.
      TMP - AIR TEMPERATURE.     DP    - DEWPOINT TEMPERATURE.
      RH  - RELATIVE HUMIDITY.   PRES  - PRESSURE.
      HI  - HEAT INDEX.          WCI   - WIND CHILL INDEX.

*  THESE STATIONS ARE NOT NWS OR FAA STATIONS AND ARE NOT UNDER
   NWS QUALITY CONTROL.

LAZ038-040-048-061>063-065>067-069-261700-
SOUTHEAST LOUISIANA

CITY           SKY/WX    TMP DP  RH WIND       PRES   REMARKS
N.O. AUDUBON     N/A     42  38  86 MISG        N/A
N.O. INTL ARPT CLOUDY    41  34  76 N9        30.09R
N.O. LAKEFRONT CLOUDY    42  34  73 N12       30.09R
SLIDELL        CLOUDY    38  33  82 NW7       30.08R WCI  33
BATON ROUGE    CLOUDY    40  34  79 NW8       30.10R WCI  34
BOOTHVILLE     CLOUDY    41  37  86 N10       30.07R
BELLE CHASSE   CLOUDY    42  33  70 NW10      30.07R
BOGALUSA*        N/A     41  34  77 N12       30.10R
GALLIANO*      CLOUDY    42  37  80 NW15      30.08R
NEW ROADS*     CLOUDY    39  34  81 NW8       30.13R WCI  34
GONZALES*      CLOUDY    40  35  84 NW9       30.11R WCI  33
HAMMOND*       CLOUDY    39  34  81 N10       30.12R WCI  32
HOUMA*         NOT AVBL
PORT FOURCHON* NOT AVBL

$$

MSZ070-080>082-261700-
SOUTHERN MISSISSIPPI

CITY           SKY/WX    TMP DP  RH WIND       PRES   REMARKS
MCCOMB         CLOUDY    36  31  82 N13       30.09R WCI  27
GULFPORT       CLOUDY    41  34  76 NW16      30.06R
BILOXI         CLOUDY    41  36  81 N15       30.05R
PASCAGOULA     CLOUDY    41  34  76 N13       30.05R
STENNIS ARPT*  CLOUDY    39  32  75 N12G17    30.08R WCI  32

$$

COASTAL OBSERVATIONS
LAKE AND NEARSHORE STATIONS

STATION/POSITION TIME  TEMP    WIND        PRES    WAVE
                       AIR SEA DIR/SP/G            HT/PER
                 (UTC) (F)     (DEG/KT/KT) (MB)    (FT/S)
PASCAGOULA       1520   39     360/ 11/ 17 1016.0
WAVELAND YACHT   1600   38 46  340/ 13/ 16 1017.8
GRAND ISLE       1600   42 52  350/ 11/ 16 1018.4
SOUTHWEST PASS   1600   45 48   10/ 13/ 15 1018.1
NEW CANAL        1600   40     340/  6/ 12 1019.1
SHELL BEACH      1600   38 51  330/ 13/ 15 1018.2

OFFSHORE STATIONS

STATION/POSITION TIME  TEMP    WIND        PRES    WAVE
                       AIR SEA DIR/SP/G            HT/PER
                 (UTC) (F)     (DEG/KT/KT) (MB)    (FT/S)
64 S DAUPHIN ISL 1500   47 66  360/ 14/ 19 1016.4    5/ 8

$$




USA.gov is the U.S. government's official web portal to all federal, state and local government web resources and services.